Location: *
(38.3914°N, 75.0697°W)
Time: 05:06:45
(UTC+00:00)

Cosmos 1862 - Pass Details

Date: 17 February 2020
Orbit: 538 x 556 km, 82.5° (Epoch: 31 March)

Event Time Altitude Azimuth Distance (km) Brightness Sun altitude
Rises 11:16:38 0° 349° (NNW) 2,701 6.6 -7.0°
Reaches altitude 10° 11:18:48 10° 346° (NNW) 1,804 5.7 -6.6°
Maximum altitude 11:22:43 62° 265° (W) 607 3.3 -5.8°
Drops below altitude 10° 11:26:36 10° 185° (S) 1,792 6.0 -5.1°
Sets 11:28:46 0° 182° (S) 2,681 7.0 -4.7°
